ARIANE 40+ R/B (23561 NORAD) Tracking and Keplerian Element Data

This shows tracking and keplerian element data for the satellite.

Feedback or suggestion? Click here.




ElementValue
Catalog23561
NameARIANE 40+ R/B
Epoch Orbit21790
Epoch Day198.94669156
Epoch Year2018
RAAN214.3317
Inclination98.7906
Eccentricity0.0007284
Argument of Perigee159.3213
Mean Anonmoly259.1291
Mean Motion14.37880865
Decay Rate5E-08
L11 23561U 95021B 18198.94669156 .00000005 00000-0 16947-4 0 9993
L22 23561 98.7906 214.3317 0007284 159.3213 259.1291 14.37880865217902

Live tracking and technical data element details for ARIANE 40+ R/B (NORAD 23561). ARIANE 40+ R/B can be tracked NOW for your location showing map with azimuth and elevation plus other details from your city location.

Track the satellite on the map from your city or location and see movement details for azimuth, elevation, latitude, longitude, range, height, and movement on the map or in text.







IsCatalogInMostPopularTable: catalog: 23561, numindb: 23
Update: records affected: 1



GetName: 23561 ARIANE 40+ R/B

Hit Count: updated at: Thu, 19 Jul 2018 21:27:53 GMT